Location: Arena
(42.5007°N, 9.4650°E)
Time: 21:31:41
(UTC+00:00)

N. Korean satellite - Visible Passes

Search period start: 26 February 2021 00:00
Search period end: 08 March 2021 00:00
Orbit: 451 x 503 km, 97.2° (Epoch: 26 February)

Date Brightness Start Highest point End Pass type
(mag) Time Alt. Az. Time Alt. Az. Time Alt. Az.
26 Feb 7.5 04:33:23 10° NNE 04:36:48 49° E 04:40:14 10° S visible
27 Feb 9.1 04:07:09 10° NE 04:09:59 22° E 04:12:49 10° SSE visible
28 Feb 10.0 03:42:10 10° ENE 03:43:04 11° E 03:43:58 10° ESE visible
28 Feb 6.8 05:13:14 10° N 05:16:36 45° WNW 05:20:00 10° SSW visible
01 Mar 6.7 04:46:23 10° NNE 04:49:55 77° ESE 04:53:28 10° S visible
02 Mar 8.4 04:19:54 10° NNE 04:23:07 33° E 04:26:23 10° SSE visible
03 Mar 9.7 03:54:00 10° NE 03:56:14 16° E 03:58:29 10° SE visible
03 Mar 7.3 05:26:27 10° N 05:29:36 31° WNW 05:32:47 10° SW visible
04 Mar 6.5 04:59:25 10° N 05:02:57 70° WNW 05:06:31 10° SSW visible
05 Mar 7.5 04:32:43 10° NNE 04:36:11 49° E 04:39:41 10° S visible
06 Mar 9.1 04:06:27 10° NE 04:09:20 23° E 04:12:14 10° SSE visible
07 Mar 10.0 03:41:20 10° ENE 03:42:23 11° E 03:43:25 10° ESE visible
07 Mar 6.8 05:12:28 10° N 05:15:54 46° WNW 05:19:22 10° SSW visible
